• Join FlightAware (Why Join?)
  • Login
  • US Flag 
08:47PM EST


 

Airport Tracker/Info


-or-


 

Live Flight TrackerFlight Track Log ✈ AAL1428 ✈ 26-Apr-2013 ✈ KDFW - KTPA

Flight Track Log - Related Links

Times and Time Zones

All times are in EDT time to prevent confusion due to time zone crossing. See the AAL1428 flight status page for this flight to view local times or setup timezone preferences in your user account.

Time Position Orientation Groundspeed Altitude Reporting Facility
EDT Latitude Longitude Course Direction KTS MPH feet Rate Location/Type
04:02PM 32.8500 -97.0333 90° East 188 216 2,900  Level Dallas / Fort Worth TRACON
04:03PM 32.7833 -97.0333 180° South 221 254 5,600 2,479 Climbing Dallas / Fort Worth TRACON
04:04PM 32.6862 -96.7679 77° East  Level FlightAware Approximate
04:04PM 32.7333 -96.9833 140° Southeast 286 329 7,900  Level Dallas / Fort Worth TRACON
04:05PM 32.7150 -96.6151 77° East  Level FlightAware Approximate
04:06PM 32.7380 -96.4610 84° East  Level FlightAware Approximate
04:06PM 32.7461 -96.7614 86° East 319 367 10,000  Level Fort Worth Center
04:07PM 32.7500 -96.3050 90° East  Level FlightAware Approximate
04:07PM 32.7494 -96.6206 88° East 367 422 12,300  Level Fort Worth Center
04:08PM 32.7550 -96.5019 87° East 391 450 15,300 2,800 Climbing Fort Worth Center
04:09PM 32.7581 -96.3561 89° East 397 457 17,900 1,900 Climbing Fort Worth Center
04:10PM 32.7444 -96.2378 98° East 403 464 19,100 1,350 Climbing Fort Worth Center
04:11PM 32.7200 -96.0850 101° East 418 481 20,600 1,100 Climbing Fort Worth Center
04:12PM 32.6997 -95.9569 101° East 430 495 21,300 950 Climbing Fort Worth Center
04:13PM 32.6747 -95.7919 100° East 456 525 22,500 1,300 Climbing Fort Worth Center
04:14PM 32.6600 -95.6294 96° East 482 555 23,900 1,250 Climbing Fort Worth Center
04:15PM 32.6664 -95.4886 87° East 488 562 25,000 1,000 Climbing Fort Worth Center
04:16PM 32.6783 -95.3253 85° East 493 567 25,900 1,150 Climbing Fort Worth Center
04:17PM 32.6856 -95.1450 87° East 493 567 27,300 1,250 Climbing Fort Worth Center
04:18PM 32.6992 -94.9769 84° East 500 575 28,400 1,350 Climbing Fort Worth Center
04:19PM 32.7064 -94.8089 87° East 505 581 30,000 1,350 Climbing Fort Worth Center
04:20PM 32.6633 -94.6519 108° East 490 564 31,100 1,100 Climbing Fort Worth Center
04:21PM 32.6142 -94.5156 113° Southeast 490 564 32,200 850 Climbing Fort Worth Center
04:22PM 32.5628 -94.3644 112° Southeast 495 570 32,800 400 Climbing Fort Worth Center
04:23PM 32.5131 -94.2108 111° Southeast 495 570 33,000 100 Climbing Fort Worth Center
04:24PM 32.4611 -94.0600 112° Southeast 495 570 33,000  Level Fort Worth Center
04:25PM 32.4089 -93.9069 112° Southeast 495 570 33,000  Level Fort Worth Center
04:26PM 32.3586 -93.7564 112° Southeast 495 570 33,000  Level Fort Worth Center
04:27PM 32.3083 -93.6061 112° Southeast 495 570 33,000  Level Fort Worth Center
04:29PM 32.2114 -93.3353 113° Southeast 494 568 33,000  Level Houston Center
04:30PM 32.1569 -93.1853 113° Southeast 496 571 33,000  Level Houston Center
04:31PM 32.1039 -93.0361 113° Southeast 493 567 33,000  Level Houston Center
04:32PM 32.0494 -92.8822 113° Southeast 491 565 33,000  Level Houston Center
04:33PM 31.9967 -92.7353 113° Southeast 489 563 33,000  Level Houston Center
04:34PM 31.9425 -92.5525 109° East 491 565 33,000 -48 Level Houston Center
04:35PM 31.9008 -92.3992 108° East 492 566 32,900 -48 Descending Houston Center
04:36PM 31.8606 -92.2475 107° East 489 563 32,900 48 Level Houston Center
04:37PM 31.8192 -92.0944 108° East 489 563 33,000 48 Climbing Houston Center
04:38PM 31.7781 -91.9422 108° East 493 567 33,000  Level Houston Center
04:39PM 31.7378 -91.7903 107° East 487 560 33,000  Level Houston Center
04:40PM 31.6875 -91.6094 108° East 485 558 33,000  Level Houston Center
04:41PM 31.6456 -91.4586 108° East 486 559 33,000  Level Houston Center
04:42PM 31.6025 -91.3069 108° East 488 562 33,000  Level Houston Center
04:43PM 31.5611 -91.1556 108° East 488 562 33,000  Level Houston Center
04:44PM 31.5150 -90.9928 108° East 491 565 33,000 -48 Level Houston Center
04:45PM 31.4717 -90.8417 109° East 492 566 32,900  Descending Houston Center
04:46PM 31.4297 -90.6889 108° East 492 566 33,000 48 Climbing Houston Center
04:47PM 31.3864 -90.5364 108° East 493 567 33,000  Level Houston Center
04:49PM 31.3344 -90.3542 108° East 492 566 33,000  Level Houston Center
04:50PM 31.2994 -90.1986 105° East 495 570 33,000  Level Houston Center
04:51PM 31.2814 -90.0394 98° East 491 565 33,000  Level Houston Center
04:52PM 31.2617 -89.8792 98° East 496 571 33,000  Level Houston Center
04:53PM 31.2419 -89.7206 98° East 493 567 33,000  Level Houston Center
04:54PM 31.2228 -89.5611 98° East 494 568 33,000 -48 Level Houston Center
04:55PM 31.1989 -89.3697 98° East 495 570 32,900  Descending Houston Center
04:56PM 31.1775 -89.2106 99° East 496 571 33,000 48 Climbing Houston Center
04:57PM 31.1564 -89.0503 99° East 498 573 33,000  Level Houston Center
04:58PM 31.1367 -88.8942 98° East 496 571 33,000  Level Houston Center
04:59PM 31.1150 -88.7339 99° East 500 575 33,000 -48 Level Houston Center
05:00PM 31.0944 -88.5708 98° East 496 571 32,900 -48 Descending Houston Center
05:01PM 31.0739 -88.4133 99° East 494 568 32,900 48 Level Houston Center
05:02PM 31.0458 -88.2208 100° East 503 579 33,000 48 Climbing Houston Center
05:03PM 31.0247 -88.0631 99° East 497 572 33,000  Level Houston Center
05:04PM 31.0022 -87.9053 99° East 493 567 33,000 -48 Level Houston Center
05:05PM 30.9786 -87.7483 100° East 492 566 32,900  Descending Houston Center
05:06PM 30.9581 -87.6039 99° East 502 578 33,000 53 Climbing Jacksonville Center
05:07PM 30.9344 -87.4478 100° East 497 572 33,000  Level Jacksonville Center
05:08PM 30.9150 -87.2897 98° East 492 566 33,000  Level Jacksonville Center
05:09PM 30.8933 -87.1314 99° East 492 566 33,000  Level Jacksonville Center
05:10PM 30.8692 -86.9728 100° East 487 560 33,000  Level Jacksonville Center
05:11PM 30.8492 -86.8147 98° East 487 560 33,000  Level Jacksonville Center
05:12PM 30.8247 -86.6589 100° East 487 560 33,000  Level Jacksonville Center
05:13PM 30.8231 -86.4969 91° East 487 560 33,000 -50 Level Jacksonville Center
05:14PM 30.8211 -86.3372 91° East 487 560 32,900  Descending Jacksonville Center
05:15PM 30.8150 -86.1750 92° East 492 566 33,000 50 Climbing Jacksonville Center
05:16PM 30.8111 -86.0006 91° East 492 566 33,000 -50 Level Jacksonville Center
05:17PM 30.8108 -85.8386 90° East 498 573 32,900  Descending Jacksonville Center
05:18PM 30.8061 -85.6764 92° East 498 573 33,000 50 Climbing Jacksonville Center
05:19PM 30.8053 -85.5167 90° East 498 573 33,000  Level Jacksonville Center
05:20PM 30.8003 -85.3544 92° East 498 573 33,000  Level Jacksonville Center
05:21PM 30.7969 -85.1950 91° East 498 573 33,000 -50 Level Jacksonville Center
05:22PM 30.7933 -85.0400 92° East 493 567 32,900 -50 Descending Jacksonville Center
05:23PM 30.7436 -84.8892 111° Southeast 483 556 32,900  Level Jacksonville Center
05:24PM 30.6494 -84.7689 132° Southeast 477 549 32,900  Level Jacksonville Center
05:25PM 30.5486 -84.6631 138° Southeast 483 556 32,900 50 Level Jacksonville Center
05:26PM 30.4456 -84.5553 138° Southeast 483 556 33,000 50 Climbing Jacksonville Center
05:27PM 30.3428 -84.4450 137° Southeast 496 571 33,000  Level Jacksonville Center
05:28PM 30.2394 -84.3353 137° Southeast 496 571 33,000  Level Jacksonville Center
05:29PM 30.1383 -84.2256 137° Southeast 496 571 33,000  Level Jacksonville Center
05:30PM 30.0372 -84.1233 139° Southeast 496 571 33,000  Level Jacksonville Center
05:31PM 29.9358 -84.0142 137° Southeast 491 565 33,000 -350 Level Jacksonville Center
05:32PM 29.8325 -83.9100 139° Southeast 491 565 32,300 -850 Descending Jacksonville Center
05:33PM 29.7161 -83.8275 148° Southeast 491 565 31,300 -1,050 Descending Jacksonville Center
05:34PM 29.5933 -83.7500 151° Southeast 491 565 30,200 -1,100 Descending Jacksonville Center
05:35PM 29.4750 -83.6750 151° Southeast 491 565 29,100 -1,150 Descending Jacksonville Center
05:36PM 29.3586 -83.6003 151° Southeast 491 565 27,900 -1,250 Descending Jacksonville Center
05:37PM 29.2358 -83.5233 151° Southeast 491 565 26,600 -1,350 Descending Jacksonville Center
05:38PM 29.1214 -83.4464 150° Southeast 491 565 25,200 -1,700 Descending Jacksonville Center
05:39PM 29.0067 -83.3744 151° Southeast 480 552 23,200 -2,000 Descending Jacksonville Center
05:40PM 28.8986 -83.3028 150° Southeast 468 539 21,200 -1,950 Descending Jacksonville Center
05:41PM 28.7944 -83.2361 151° Southeast 452 520 19,300 -1,800 Descending Jacksonville Center
05:42PM 28.6900 -83.1742 153° Southeast 437 503 17,600 -1,943 Descending Jacksonville Center
05:43PM 28.6167 -83.1167 145° Southeast 421 484 15,900 -2,094 Descending Tampa TRACON
05:44PM 28.5167 -83.0667 156° South 415 478 13,900 -1,438 Descending Tampa TRACON
05:45PM 28.4167 -83.0000 150° Southeast 403 464 13,000 -1,150 Descending Tampa TRACON
05:46PM 28.3333 -82.9500 152° Southeast 371 427 11,600 -1,238 Descending Tampa TRACON
05:47PM 28.2333 -82.8833 150° Southeast 339 390 10,400 -1,095 Descending Tampa TRACON
05:48PM 28.1667 -82.8167 139° Southeast 298 343 9,300 -1,316 Descending Tampa TRACON
05:49PM 28.1333 -82.7667 127° Southeast 288 331 7,900 -1,789 Descending Tampa TRACON
05:50PM 28.0833 -82.7000 130° Southeast 278 320 5,900 -1,450 Descending Tampa TRACON
05:51PM 28.0333 -82.6333 130° Southeast 251 289 5,000 -446 Descending Tampa TRACON
05:52PM 27.9667 -82.6167 168° South 258 297 5,000 -496 Level Tampa TRACON
05:53PM 27.9000 -82.6167 180° South 251 289 4,000 -1,000 Descending Tampa TRACON
05:54PM 27.8167 -82.6167 180° South 249 287 3,000 -500 Descending Tampa TRACON
05:55PM 27.7667 -82.6000 164° South 216 249 3,000  Level Tampa TRACON